| time (UTC) | temp C | wind direction | speed KPH | gust KPH | rain 1hr cm | rain 24hr cm | rain mn cm | humidity % | barometer mb |
| 20260504014553 | 10 | 0 | 0.0 | 0.0 | 0.00 | 0.00 | 0.00 | 52 | 1013.2 |
| 20260504013042 | 10 | 0 | 0.0 | 3.2 | 0.00 | 0.00 | 0.00 | 52 | 1013.2 |
| 20260504011541 | 10 | 0 | 0.0 | 0.0 | 0.00 | 0.00 | 0.00 | 51 | 1013.1 |
| 20260504010039 | 11 | 0 | 0.0 | 0.0 | 0.00 | 0.00 | 0.00 | 50 | 1013.1 |
| 20260504004538 | 11 | 0 | 0.0 | 0.0 | 0.00 | 0.00 | 0.00 | 49 | 1013.0 |
| 20260504003044 | 11 | 0 | 0.0 | 4.8 | 0.00 | 0.00 | 0.00 | 48 | 1012.8 |
| 20260504001548 | 11 | 0 | 0.0 | 0.0 | 0.00 | 0.00 | 0.00 | 48 | 1012.8 |
| 20260504000044 | 12 | 0 | 0.0 | 4.8 | 0.00 | 0.00 | 0.00 | 46 | 1012.7 |
| 20260503234550 | 12 | 0 | 0.0 | 4.8 | 0.00 | 0.00 | 0.00 | 43 | 1012.7 |
| 20260503233053 | 12 | 360 | 1.6 | 12.9 | 0.00 | 0.00 | 0.00 | 42 | 1012.6 |
| 20260503231546 | 12 | 0 | 1.6 | 17.7 | 0.00 | 0.00 | 0.00 | 42 | 1012.7 |
| 20260503230045 | 12 | 0 | 0.0 | 17.7 | 0.00 | 0.00 | 0.00 | 42 | 1012.8 |
| 20260503224549 | 13 | 0 | 0.0 | 8.0 | 0.00 | 0.00 | 0.00 | 43 | 1012.8 |
| 20260503223042 | 13 | 0 | 0.0 | 14.5 | 0.00 | 0.00 | 0.00 | 41 | 1012.8 |
| 20260503221548 | 13 | 0 | 0.0 | 1.6 | 0.00 | 0.00 | 0.00 | 42 | 1012.8 |
| 20260503214545 | 13 | 0 | 0.0 | 14.5 | 0.00 | 0.00 | 0.00 | 41 | 1012.8 |
| 20260503213048 | 13 | 277 | 4.8 | 19.3 | 0.00 | 0.00 | 0.00 | 40 | 1012.8 |
| 20260503211544 | 13 | 0 | 1.6 | 19.3 | 0.00 | 0.00 | 0.00 | 40 | 1012.7 |
| 20260503210053 | 13 | 0 | 1.6 | 17.7 | 0.00 | 0.00 | 0.00 | 43 | 1012.7 |
| 20260503204601 | 13 | 0 | 0.0 | 6.4 | 0.00 | 0.00 | 0.00 | 42 | 1012.9 |
| 20260503203053 | 13 | 0 | 0.0 | 17.7 | 0.00 | 0.00 | 0.00 | 42 | 1013.0 |
| 20260503201539 | 13 | 0 | 0.0 | 17.7 | 0.00 | 0.00 | 0.00 | 42 | 1013.1 |
| 20260503200045 | 12 | 0 | 0.0 | 0.0 | 0.00 | 0.00 | 0.00 | 43 | 1013.3 |
| 20260503194603 | 12 | 0 | 0.0 | 17.7 | 0.00 | 0.00 | 0.00 | 43 | 1013.6 |
| 20260503193042 | 12 | 0 | 0.0 | 4.8 | 0.00 | 0.00 | 0.00 | 43 | 1013.9 |
| 20260503191547 | 12 | 0 | 0.0 | 0.0 | 0.00 | 0.00 | 0.00 | 46 | 1014.0 |
| 20260503190045 | 12 | 0 | 0.0 | 0.0 | 0.00 | 0.00 | 0.00 | 43 | 1014.1 |
| 20260503184538 | 12 | 0 | 0.0 | 0.0 | 0.00 | 0.00 | 0.00 | 43 | 1014.4 |
| 20260503183039 | 12 | 0 | 0.0 | 0.0 | 0.00 | 0.00 | 0.00 | 45 | 1014.6 |
| 20260503181543 | 12 | 0 | 0.0 | 0.0 | 0.00 | 0.00 | 0.00 | 44 | 1014.7 |
| 20260503180053 | 12 | 0 | 0.0 | 0.0 | 0.00 | 0.00 | 0.00 | 45 | 1015.0 |
| 20260503174539 | 12 | 0 | 0.0 | 6.4 | 0.00 | 0.00 | 0.00 | 44 | 1014.9 |
| 20260503173108 | 12 | 0 | 0.0 | 16.1 | 0.00 | 0.00 | 0.00 | 46 | 1015.1 |
| 20260503171548 | 11 | 0 | 0.0 | 17.7 | 0.00 | 0.00 | 0.00 | 44 | 1015.2 |
| 20260503081551 | 0 | 0 | 0.0 | 0.0 | 0.00 | 0.00 | 0.00 | 13 | 1015.2 |
| 20260503071542 | 0 | 0 | 0.0 | 0.0 | 0.00 | 0.00 | 0.00 | 25 | 1015.1 |
| 20260503054539 | 1 | 0 | 0.0 | 0.0 | 0.00 | 0.03 | 0.00 | 42 | 1015.3 |
| 20260503053038 | 1 | 0 | 0.0 | 0.0 | 0.00 | 0.03 | 0.00 | 44 | 1015.3 |
| 20260503051542 | 1 | 0 | 0.0 | 0.0 | 0.00 | 0.03 | 0.00 | 47 | 1015.4 |
| 20260503050042 | 1 | 0 | 0.0 | 0.0 | 0.00 | 0.03 | 0.00 | 50 | 1015.6 |
| 20260503044542 | 2 | 0 | 0.0 | 0.0 | 0.00 | 0.03 | 0.00 | 54 | 1015.6 |
| 20260503043038 | 2 | 0 | 0.0 | 0.0 | 0.00 | 0.03 | 0.00 | 57 | 1015.6 |
| 20260503041546 | 2 | 0 | 0.0 | 0.0 | 0.00 | 0.03 | 0.00 | 58 | 1015.5 |
| 20260503040044 | 2 | 0 | 0.0 | 0.0 | 0.00 | 0.03 | 0.00 | 60 | 1015.6 |
| 20260503034544 | 2 | 0 | 0.0 | 0.0 | 0.00 | 0.03 | 0.03 | 60 | 1015.7 |
| 20260503033039 | 2 | 0 | 0.0 | 0.0 | 0.00 | 0.03 | 0.03 | 60 | 1015.6 |
| 20260503031555 | 2 | 0 | 0.0 | 0.0 | 0.00 | 0.03 | 0.03 | 61 | 1015.8 |
| 20260503030039 | 2 | 0 | 0.0 | 0.0 | 0.00 | 0.03 | 0.03 | 61 | 1015.9 |
| 20260503024538 | 3 | 0 | 0.0 | 0.0 | 0.00 | 0.03 | 0.03 | 62 | 1015.9 |
| 20260503023045 | 3 | 0 | 0.0 | 0.0 | 0.00 | 0.03 | 0.03 | 63 | 1016.0 |
| 20260503021546 | 3 | 0 | 0.0 | 0.0 | 0.00 | 0.03 | 0.03 | 63 | 1015.9 |
| 20260503020051 | 3 | 0 | 0.0 | 0.0 | 0.00 | 0.03 | 0.03 | 63 | 1016.0 |